Location: Los Gatos B&B
(42.6926°N, 77.0646°W)
Time: 06:39:17
(UTC-04:00)

Cosmos 2263 Rocket - Visible Passes

Search period start: 03 July 2015 00:00
Search period end: 13 July 2015 00:00
Orbit: 825 x 848 km, 71.0° (Epoch: 02 July)

Date Brightness Start Highest point End Pass type
(mag) Time Alt. Az. Time Alt. Az. Time Alt. Az.
03 Jul 2.3 04:25:10 10° SSW 04:30:40 76° ESE 04:36:16 10° NNE visible
04 Jul 2.4 04:09:12 14° SSW 04:14:02 70° ESE 04:19:36 10° NNE visible
05 Jul 2.4 03:53:12 17° S 03:57:23 64° ESE 04:02:55 10° NNE visible
06 Jul 2.5 03:37:09 21° S 03:40:44 59° ESE 03:46:14 10° NNE visible
07 Jul 2.6 03:21:04 25° S 03:24:05 54° ESE 03:29:32 10° NNE visible
08 Jul 2.7 03:04:57 29° SSE 03:07:27 50° ESE 03:12:50 10° NE visible
08 Jul 3.5 04:47:03 10° WSW 04:51:42 26° NW 04:56:18 10° N visible
09 Jul 2.8 02:48:47 32° SSE 02:50:48 46° ESE 02:56:08 10° NE visible
09 Jul 3.5 04:30:29 11° WSW 04:34:59 28° NW 04:39:44 10° N visible
10 Jul 2.9 02:32:36 34° SE 02:34:11 42° ESE 02:39:25 10° NE visible
10 Jul 3.4 04:14:18 14° WSW 04:18:17 30° NW 04:23:08 10° N visible
11 Jul 2.9 02:16:22 34° SE 02:17:32 38° ESE 02:22:42 10° NE visible
11 Jul 3.3 03:58:04 17° WSW 04:01:34 32° NW 04:06:32 10° N visible
12 Jul 3.0 02:00:07 34° SE 02:00:54 35° ESE 02:05:58 10° NE visible
12 Jul 3.2 03:41:49 20° WSW 03:44:52 35° NW 03:49:56 10° N visible
